Flag for Germany Weather past 2 weeks in Andernach, Rhineland-Palatinate, Germany

39 °F

Light rain. Mostly cloudy.

Feels Like: 37 °F
Forecast: 34 / 44 °F
Wind: 3 mph from North

Location: Koeln / Bonn

Current Time: Oct 14, 2015 at 1:19:36 AM

Latest Report: Oct 13, 2015 at 11:50 PM

Visibility: N/A

Pressure: 30.09 "Hg

Humidity: 87%

Dew point: 36 °F

Location of AndernachLocation

Historic Weather in Andernach — Graph


Andernach temperature yesterday

Maximum temperature yesterday: 48 °F (at 1:50 PM)
Minimum temperature yesterday: 30 °F (at 4:50 AM)
Average temperature yesterday: 39 °F

Past Weeks' High & Low Weather Summary

High70 °F (Oct 2, 3:50 PM)100% (Sep 29, 2:20 AM)30.60 "Hg (Sep 29, 2:20 AM)
Low30 °F (Oct 13, 4:50 AM)37% (Sep 30, 4:50 PM)29.59 "Hg (Oct 6, 4:50 PM)
Average52 °F81%30.10 "Hg
* Reported Sep 28 11:20 PM — Oct 13 11:20 PM, Andernach, Weather by CustomWeather, © 2015

Note: Actual official high and low records may vary slightly from our data, if they occured in-between our weather recording intervals... More about our weather records


Andernach weather history for previous 24 hours

Time TempWeatherWind HumidityBarometerVisibility
11:20 PM
Tue, Oct 13
39 °FLight rain. Passing clouds.9 mph87%30.09 "HgN/A
10:50 PM39 °FLight rain. Passing clouds.7 mph87%30.09 "HgN/A
10:20 PM41 °FPartly cloudy.8 mph81%30.09 "HgN/A
9:50 PM41 °FPartly cloudy.7 mph81%30.07 "HgN/A
9:20 PM41 °FPassing clouds.7 mph81%30.07 "HgN/A
8:50 PM41 °FPassing clouds.9 mph81%30.07 "HgN/A
8:20 PM41 °FPartly cloudy.8 mph81%30.07 "Hg6 mi
7:50 PM41 °FPartly cloudy.9 mph81%30.07 "Hg5 mi
7:20 PM43 °FPartly sunny.9 mph81%30.04 "Hg4 mi
6:50 PM43 °FOvercast.8 mph81%30.04 "Hg4 mi
6:20 PM43 °FOvercast.9 mph81%30.04 "Hg6 mi
5:50 PM45 °FPartly sunny.9 mph76%30.04 "Hg6 mi
5:20 PM45 °FPartly sunny.9 mph81%30.04 "Hg6 mi
4:50 PM45 °FOvercast.9 mph81%30.04 "HgN/A
4:20 PM45 °FPartly sunny.10 mph81%30.01 "HgN/A
3:50 PM46 °FPartly sunny.7 mph71%30.01 "HgN/A
3:20 PM46 °FPartly sunny.8 mph76%30.01 "HgN/A
2:50 PM46 °FBroken clouds.9 mph76%30.01 "HgN/A
2:20 PM46 °FPartly sunny.9 mph76%30.01 "HgN/A
1:50 PM48 °FPartly sunny.10 mph76%30.01 "HgN/A
1:20 PM46 °FBroken clouds.7 mph76%30.01 "HgN/A
12:50 PM45 °FSunny.7 mph81%30.01 "Hg10 mi
12:20 PM43 °FSunny.5 mph81%30.01 "Hg10 mi
11:50 AM43 °FSunny.5 mph87%30.01 "Hg10 mi
11:20 AM41 °FSunny.3 mph87%30.01 "Hg10 mi
10:50 AM39 °FSunny.2 mph93%30.01 "Hg10 mi
10:20 AM39 °FSunny.2 mph93%30.01 "Hg10 mi
9:50 AM37 °FSunny.2 mph100%30.01 "Hg10 mi
9:20 AM36 °FSunny.2 mph100%30.01 "Hg10 mi
8:50 AM32 °FClear.3 mph100%29.98 "Hg6 mi
8:20 AM32 °FClear.5 mph100%29.98 "Hg6 mi
7:50 AM32 °FClear.1 mph100%29.98 "Hg6 mi
7:20 AM32 °FClear.2 mph100%29.98 "Hg10 mi
6:50 AM32 °FClear.1 mph100%29.98 "Hg10 mi
6:20 AM32 °FClear.3 mph100%29.98 "Hg10 mi
5:50 AM30 °FClear.5 mph100%29.98 "Hg10 mi
5:20 AM32 °FClear.2 mph100%29.98 "Hg10 mi
4:50 AM30 °FClear.3 mph100%29.98 "Hg10 mi
4:20 AM32 °FFog.2 mph93%29.98 "HgN/A
3:50 AM34 °FFog.2 mph100%29.98 "HgN/A
3:20 AM32 °FFog.3 mph100%30.01 "HgN/A
2:50 AM34 °FFog.1 mph93%30.01 "HgN/A
2:20 AM36 °FFog.2 mph87%30.01 "HgN/A
1:50 AM37 °FFog.3 mph87%30.01 "HgN/A
1:20 AM36 °FFog.2 mph93%30.01 "HgN/A
Weather by CustomWeather, © 2015

See weather overviewHow to use our weather pages